AO-07 1 07530U 74089B 17061.55143076 -.00000028 00000-0 10098-3 0 9991 2 07530 101.6170 32.3960 0012034 167.5508 302.4922 12.53625724935497 UO-11 1 14781U 84021B 17061.82295949 .00000169 00000-0 27123-4 0 9994 2 14781 97.7127 111.3730 0008521 178.4013 181.7229 14.82863397774584 LO-19 1 20442U 90005G 17060.88424564 .00000044 00000-0 32125-4 0 9996 2 20442 098.5679 358.5367 0012892 103.3537 256.9085 14.32850244416198 HUBBLE 1 20580U 90037B 17061.19633572 .00000900 00000-0 44813-4 0 9998 2 20580 28.4708 354.4551 0002955 103.1482 40.3671 15.08688009274114 MET-2/21 1 22782U 93055A 17061.74774414 .00000004 00000-0 -98518-5 0 9997 2 22782 82.5471 108.0645 0022646 13.1042 125.1682 13.83796858186979 AO-27 1 22825U 93061C 17061.48826376 .00000015 00000-0 23427-4 0 9995 2 22825 98.7988 25.8372 0007367 285.7269 74.3100 14.29987311222151 IO-26 1 22826U 93061D 17061.12405586 .00000031 00000-0 29525-4 0 9996 2 22826 98.7930 25.5637 0007852 276.0614 83.9673 14.30315131222277 FO-29 1 24278U 96046B 17061.75643598 -.00000047 00000-0 -91857-5 0 9998 2 24278 98.5788 319.0970 0349330 253.0710 103.1864 13.53074788 14485 NOAA-15 1 25338U 98030A 17061.61720075 .00000008 00000-0 22055-4 0 9990 2 25338 98.7852 72.2998 0011127 151.2650 208.9144 14.25779239977821 GO-32 1 25397U 98043D 17061.43451531 .00000007 00000-0 21985-4 0 9997 2 25397 98.5996 6.0829 0000920 11.0776 349.0423 14.23615972968606 ISS 1 25544U 98067A 17061.89374287 .00020876 00000-0 32165-3 0 9996 2 25544 51.6415 208.1606 0006847 246.0797 250.9128 15.54118094 45225 NO-44 1 26931U 01043C 17061.83143969 .00000006 00000-0 34053-4 0 9992 2 26931 67.0529 5.6051 0007358 279.9389 80.0882 14.30448777805137 SO-50 1 27607U 02058C 17061.51152055 .00000083 00000-0 32668-4 0 9996 2 27607 64.5547 91.5353 0036860 146.2875 214.0582 14.75289187763377 CO-55 1 27844U 03031E 17061.54753154 .00000073 00000-0 53015-4 0 9999 2 27844 98.6921 72.0959 0008727 299.0713 60.9590 14.22018173709160 CO-57 1 27848U 03031J 17061.51849894 .00000054 00000-0 44584-4 0 9997 2 27848 98.7017 72.2798 0008735 309.3481 50.6921 14.21635296709041 RS-22 1 27939U 03042A 17061.88810361 .00000189 00000-0 42480-4 0 9999 2 27939 97.9212 210.1618 0012635 197.9915 285.5474 14.66527596717730 NOAA-18 1 28654U 05018A 17061.57618562 -.00000005 00000-0 22464-4 0 9992 2 28654 99.1908 81.1422 0014443 14.7305 345.4284 14.12326995607215 CO-58 1 28895U 05043F 17060.89127333 .00000285 00000-0 63801-4 0 9991 2 28895 097.8510 228.2063 0018074 121.2707 239.0269 14.63349419604563 CO-65 1 32785U 08021C 17061.51281600 .00000466 00000-0 56662-4 0 9999 2 32785 97.5772 90.6029 0013826 156.0735 204.1127 14.87807574479038 AAUSAT2 1 32788U 08021F 17061.05738845 .00001276 00000-0 12557-3 0 9993 2 32788 97.5723 101.0144 0013401 125.4858 234.7614 14.93706744479682 DO-64 1 32789U 08021G 17061.22382420 .00003294 00000-0 23933-3 0 9999 2 32789 97.5732 121.6652 0014880 105.0578 255.2296 15.04459890480787 CO-66 1 32791U 08021J 17061.54559464 .00000646 00000-0 72210-4 0 9992 2 32791 97.5755 94.6631 0014513 142.9621 217.2602 14.90107147479262 RS-30 1 32953U 08025A 17061.88237831 .00000020 00000-0 71209-4 0 9997 2 32953 82.5035 305.7727 0018950 155.1054 205.0943 12.43074982398218 PRISM 1 33493U 09002B 17061.85235966 .00000402 00000-0 42031-4 0 9992 2 33493 98.1832 299.7141 0016725 73.5475 286.7595 14.95478882439880 NOAA-19 1 33591U 09005A 17061.63664457 .00000103 00000-0 81262-4 0 9998 2 33591 99.0794 27.0257 0013418 208.5576 151.4861 14.12157567415627 TISAT-1 1 36799U 10035E 17061.12201371 .00000859 00000-0 94520-4 0 9991 2 36799 98.0477 181.7870 0011498 323.5203 36.5229 14.90246935359832 JUGNU 1 37839U 11058B 17061.20809036 .00000339 00000-0 38976-4 0 9990 2 37839 19.9624 19.1374 0019156 84.5538 40.2727 14.12573126278554 SRMSAT 1 37841U 11058D 17061.33183028 .00000306 00000-0 23216-4 0 9998 2 37841 19.9727 57.8702 0011790 348.7923 143.4029 14.10565842278177 AO-71 1 37854U 11061E 17061.46912769 .00002401 00000-0 13636-3 0 9994 2 37854 101.7098 240.7790 0168789 30.7476 330.3493 15.03672320290892 HRBE 1 37855U 11061F 17061.13878586 .00002215 00000-0 12406-3 0 9994 2 37855 101.7228 238.1560 0182119 37.6049 323.7736 15.02626430290716 ALMASAT-1 1 38078U 12006B 17061.52652847 .00027167 36173-5 33472-3 0 9999 2 38078 69.4390 58.3628 0326719 87.5431 276.3095 15.16790468268585 HORYU-2 1 38340U 12025D 17061.87603739 .00000395 00000-0 66432-4 0 9998 2 38340 98.3749 62.0670 0010381 270.3485 89.6534 14.75263120257610 RS-40 1 38735U 12041C 17061.84666033 .00000003 00000-0 -45954-4 0 9990 2 38735 82.4765 30.4865 0015588 260.2388 99.6931 12.42572999208481 BEESAT-3 1 39134U 13015E 17061.52743434 .00004079 00000-0 21111-3 0 9996 2 39134 64.8697 210.6046 0029599 298.0015 61.8117 15.17339293213294 BEESAT-2 1 39136U 13015G 17061.82633414 .00002796 00000-0 15928-3 0 9990 2 39136 64.8705 218.8887 0027804 297.5075 62.3224 15.14717586213169 ZACUBE-1 1 39417U 13066B 17060.91323389 .00000415 00000-0 59305-4 0 9998 2 39417 097.6445 108.2792 0057987 260.4743 098.9914 14.80629351176904 TRITON-1 1 39427U 13066M 17061.54425976 .00000410 00000-0 74162-4 0 9997 2 39427 97.6451 84.0122 0113664 331.0093 28.4830 14.67389287175403 GOMX-1 1 39430U 13066Q 17061.79051523 .00000491 00000-0 98260-4 0 9995 2 39430 97.6643 68.9492 0152518 19.6000 341.0977 14.58798476174420 LO-74 1 39440U 13066AA 17061.70107124 .00000367 00000-0 58855-4 0 9994 2 39440 97.6418 99.0561 0079399 286.0435 73.2042 14.75375858176399 AO-73 1 39444U 13066AE 17061.75584331 .00000486 00000-0 67170-4 0 9994 2 39444 97.6459 110.0013 0057211 254.7116 104.7769 14.81344889175854 SPROUT 1 39770U 14029E 17061.78204246 .00001055 00000-0 12688-3 0 9999 2 39770 97.8697 162.2442 0008158 324.6725 35.3960 14.86009554150336 DUCHIFAT-1 1 40021U 14033M 17061.50865460 .00000997 00000-0 10993-3 0 9997 2 40021 97.9232 334.5029 0011909 296.2693 63.7300 14.89744358146715 NANOSATCBR1 1 40024U 14033Q 17060.79116009 .00000764 00000-0 87021-4 0 9997 2 40024 97.9197 332.8354 0011188 299.8531 60.1573 14.89089084146563 EO-79 1 40025U 14033R 17061.18471547 .00000601 00000-0 71016-4 0 9990 2 40025 97.9183 332.4239 0011393 300.9556 59.0541 14.88317296146577 DTUSAT-2 1 40030U 14033W 17061.70093553 .00000570 00000-0 68265-4 0 9998 2 40030 97.9153 332.1591 0010744 292.8969 67.1112 14.87943504146619 EO-80 1 40032U 14033Y 17061.80572400 .00000572 00000-0 68557-4 0 9990 2 40032 97.9160 332.2710 0010684 292.9066 67.1022 14.87878003146627 ANTELSAT 1 40034U 14033AA 17061.74944866 .00000415 00000-0 69924-4 0 9999 2 40034 97.8743 308.8899 0057756 275.4820 83.9802 14.73619907145247 VELOX-1 1 40057U 14034E 17061.80703696 .00000497 00000-0 78114-4 0 9997 2 40057 98.1860 160.4617 0011978 45.4456 314.7721 14.77015177144058 DAURIA DX 1 1 40071U 14037C 17061.85486199 .00000231 00000-0 37242-4 0 9990 2 40071 98.3293 168.7655 0009598 41.3900 318.8039 14.80966287143230 UKUBE-1 1 40074U 14037F 17061.85490887 .00000527 00000-0 71395-4 0 9997 2 40074 98.3371 172.0766 0005548 48.6781 311.4916 14.83390169143415 HODOYOSHI-1 1 40299U 14070B 17061.83445535 .00001193 00000-0 55156-4 0 9998 2 40299 97.4095 146.1790 0015230 103.4617 36.0060 15.22022439128760 CHUBUSAT-1 1 40300U 14070C 17061.83223375 .00001353 00000-0 64510-4 0 9999 2 40300 97.4026 143.6578 0022494 111.9692 27.0280 15.20599691128626 QSAT-EOS 1 40301U 14070D 17061.83087596 .00002889 00000-0 12573-3 0 9999 2 40301 97.3967 143.4422 0029735 109.7349 29.3377 15.22652042128641 FIREBIRD FU3 1 40377U 15003B 17060.94923789 .00003486 00000-0 15320-3 0 9990 2 40377 099.1136 223.6219 0138105 357.9150 002.1483 15.14640007114760 FIREBIRD FU4 1 40378U 15003C 17061.73566703 .00003893 00000-0 17026-3 0 9995 2 40378 99.1140 224.5928 0138233 355.2211 4.7687 15.14665745114898 GRIFEX 1 40379U 15003D 17061.75299792 .00002367 00000-0 11096-3 0 9995 2 40379 99.1148 222.8346 0143691 1.4526 358.7089 15.12403271114794 NO-84 1 40654U 15025D 17061.40981912 .00017739 00000-0 33901-3 0 03766 2 40654 054.9981 353.1754 0187783 358.7678 001.2916 15.31331480063527 NO-83 1 40655U 15025E 17061.21309533 .00027582 00000-0 44423-3 0 04162 2 40655 054.9849 336.2272 0160637 008.3775 351.9997 15.39502535063728 DEORBITSAIL 1 40719U 15032E 17061.28147988 .00000728 00000-0 11310-3 0 9990 2 40719 97.9927 316.3098 0017555 124.1055 236.1823 14.75924808 88556 NUDT-PHONESAT 1 40900U 15049B 17061.85541347 .00005007 00000-0 24396-3 0 9993 2 40900 97.4453 71.3281 0012930 231.9676 128.0392 15.18728408 80319 XW-2A 1 40903U 15049E 17061.84135092 .00004720 00000-0 12767-3 0 9991 2 40903 97.4312 86.2198 0013443 290.1668 69.8131 15.38130529 81290 XW-2C 1 40906U 15049H 17061.86197980 .00001378 00000-0 78721-4 0 9999 2 40906 97.4557 69.4932 0014294 218.0291 141.9933 15.14294713 80144 XW-2D 1 40907U 15049J 17061.85207654 .00001477 00000-0 83894-4 0 9996 2 40907 97.4525 69.2741 0013700 215.9061 144.1251 15.14382010 80144 LILACSAT-2 1 40908U 15049K 17061.81215373 .00000811 00000-0 49546-4 0 9997 2 40908 97.4626 69.1046 0015302 213.7354 146.2904 15.12970914 80080 XW-2F 1 40910U 15049M 17061.84622404 .00002527 00000-0 13799-3 0 9996 2 40910 97.4550 69.7885 0014617 213.9857 146.0440 15.15149400 80055 XW-2B 1 40911U 15049N 17061.85571978 .00001448 00000-0 82434-4 0 9991 2 40911 97.4570 69.5984 0013598 216.2076 143.8236 15.14349997 80041 DCBB 1 40912U 15049P 17061.72439145 .00001827 00000-0 95105-4 0 9997 2 40912 97.4523 71.2010 0014658 207.7382 263.4344 15.17202344 80140 TW-1C 1 40926U 15051B 17061.82648903 .00008735 00000-0 21419-3 0 9991 2 40926 97.2427 102.2593 0011775 186.7408 259.7978 15.40883782 80530 TW-1A 1 40928U 15051D 17061.74640057 .00004460 00000-0 13269-3 0 9991 2 40928 97.2397 99.4603 0011817 214.6668 237.8869 15.35178336 80366 IO-86 1 40931U 15052B 17061.31745863 .00000752 00000-0 15799-4 0 9991 2 40931 5.9999 274.7037 0012940 174.0878 185.9540 14.76513732 77141 GomX-3 1 40949U 98067HA 16292.18357804 .08527750 12374-4 77882-3 0 9992 2 40949 51.6055 106.7696 0006699 286.1344 73.8944 16.38002265 59645 LQSat 1 40958U 15057A 17061.79917104 .00000065 00000-0 17871-4 0 9996 2 40958 97.9871 138.9329 0019412 49.7000 310.5891 14.72945718 75457 AO-85 1 40967U 15058D 17061.34293778 .00000428 00000-0 68426-4 0 04138 2 40967 064.7754 182.9425 0174741 117.5910 244.3062 14.75332987061355 ATHENOXAT-1 1 41168U 15077C 17061.75490838 .00002903 00000-0 12887-3 0 9992 2 41168 14.9857 226.7373 0012722 340.0475 129.3975 15.11160991 66915 ChubuSat-2 1 41338U 16012B 17060.72831218 .00000711 00000-0 49432-4 0 9990 2 41338 31.0036 74.6969 0013938 75.9270 284.2914 14.99656729 56840 ChubuSat-3 1 41339U 16012C 17061.40350733 .00000527 00000-0 34678-4 0 9996 2 41339 31.0109 69.7279 0013723 89.0749 271.1459 14.99868331 56922 Horyu-4 1 41340U 16012D 17061.22192057 .00001025 00000-0 72740-4 0 9997 2 41340 31.0055 69.0623 0014294 94.6279 265.5990 15.00457062 56930 OUFTI-1 1 41458U 16025C 17061.11945490 .00001345 00000-0 77300-4 0 9998 2 41458 98.1949 92.5287 0174991 287.2600 70.9540 15.02627747 46492 e-st@r-II 1 41459U 16025D 17060.86410491 .00002200 00000-0 12404-3 0 9992 2 41459 098.1986 092.2326 0174026 288.5121 069.7261 15.02518027046458 AAUSAT4 1 41460U 16025E 17061.85001817 .00002397 00000-0 13482-3 0 9996 2 41460 98.1880 93.3298 0168148 284.0025 74.2608 15.03205778 46616 MinXSS 1 41474U 98067HU 17061.56181187 .00170657 00000-0 87921-3 0 9998 2 41474 51.6450 185.9631 0003023 357.0279 3.0704 15.80123870 45432 CADRE 1 41475U 98067HV 17003.74787607 .12518598 12537-4 55989-3 0 9998 2 41475 51.6110 110.0165 0004040 312.3134 47.7551 16.43344525 36494 NODES 1 1 41477U 98067HX 17060.74195087 .00068571 00000-0 54267-3 0 9992 2 41477 51.6349 196.9145 0002376 3.6421 356.4593 15.70691015 45124 NODES 2 1 41478U 98067HY 17061.77751324 .00063229 00000-0 50288-3 0 9993 2 41478 51.6344 191.8288 0002395 5.4935 354.6088 15.70605088 45284 LO-87 1 41557U 16033B 17061.84378971 .00003128 00000-0 12197-3 0 9994 2 41557 97.4705 141.3561 0015093 28.7991 331.4077 15.26604197 42205 NuSat2 1 41558U 16033C 17061.80261390 .00003195 00000-0 12501-3 0 9990 2 41558 97.4732 141.3506 0014528 27.8763 332.3251 15.26480622 42191 Lapan A3 1 41603U 16040E 17061.81910396 .00000429 00000-0 23577-4 0 9990 2 41603 97.4754 124.9963 0015332 85.1514 55.8930 15.19273863 38505 Swayam 1 41607U 16040J 17061.45527465 .00004160 00000-0 19414-3 0 9995 2 41607 97.4737 124.7448 0016246 90.3118 269.9979 15.20280490 38382 Pratham 1 41783U 16059A 17061.86483537 .00000105 00000-0 29880-4 0 9990 2 41783 98.1811 124.2666 0034705 132.9029 227.5095 14.62808683 23051 AlSat 1N 1 41789U 16059G 17061.80431651 .00000148 00000-0 37277-4 0 9996 2 41789 98.1812 124.5035 0029575 127.5524 232.8358 14.64012429 23047 ScatSat 1 41790U 16059H 17061.17346903 .00000023 00000-0 16646-4 0 9992 2 41790 98.0805 115.6692 0012480 114.4720 245.7778 14.50095975 22758 TY-1 1 41844U 16066D 17061.89541950 .00001487 00000-0 68584-4 0 9991 2 41844 97.4060 70.6750 0014359 249.1284 199.1204 15.21733989 17176 CAS-2T 1 41845U 16066E 17061.84738537 -.00000073 00000-0 00000 0 0 9991 2 41845 98.7798 74.9174 0366339 203.6624 154.7347 14.37704665 16211 Pegasus-1 1 41846U 16066F 17061.77459390 -.00000072 00000-0 00000 0 0 9990 2 41846 98.7828 74.7288 0369421 204.7249 153.5861 14.36890737 16190 STARS-C 1 41895U 98067KR 17061.48983649 .00022623 00000-0 31749-3 0 9995 2 41895 51.6411 209.4931 0005586 276.7039 83.3321 15.56624946 11340 Tancredo 1 1 41931U 98067KT 17061.87597829 .00045454 00000-0 60164-3 0 9990 2 41931 51.6446 207.5731 0008568 249.9966 110.0129 15.57803547 6974 ITF-2 1 41932U 98067KU 17061.45364888 .00017345 00000-0 25125-3 0 9998 2 41932 51.6408 209.9964 0006905 226.9566 133.0859 15.55950974 6904 AOBA-V3LOX3 1 41935U 98067KX 17061.90453885 .00019968 00000-0 28788-3 0 9998 2 41935 51.6425 207.7632 0005552 231.1557 128.8939 15.55979555 7075 OSNSAT 1 41939U 98067KZ 17061.69302593 .00032907 00000-0 45000-3 0 9991 2 41939 51.6440 208.6008 0009736 243.0069 117.0441 15.57071454 6295 Nayif-1 1 42017U 17008BX 17061.65042639 .00002482 00000-0 11033-3 0 9997 2 42017 97.5091 123.2706 0005390 224.9607 135.1205 15.22462130 2280 /EX